Meteo pe oră la Bolshie Leskovichi

Astăzi, 10 Mai, Luni

Timp Temperatura Precipitaţii Vânt Presiune Umiditate
00:00 +6°C° 0 mm 4 m/s 753 mmHg 75%
01:00 +6°C° 0 mm 4 m/s 753 mmHg 76%
02:00 +6°C° 0 mm 4 m/s 753 mmHg 76%
03:00 +5°C° 0 mm 4 m/s 753 mmHg 78%
04:00 +5°C° 0 mm 3 m/s 753 mmHg 79%
05:00 +4°C° 0 mm 3 m/s 753 mmHg 80%
06:00 +7°C° 0 mm 4 m/s 753 mmHg 76%
07:00 +10°C° 0 mm 4 m/s 753 mmHg 73%
08:00 +12°C° 0 mm 5 m/s 753 mmHg 69%
09:00 +14°C° 0 mm 5 m/s 753 mmHg 64%
10:00 +15°C° 0 mm 6 m/s 753 mmHg 59%
11:00 +17°C° 0 mm 6 m/s 753 mmHg 54%
12:00 +19°C° 0 mm 6 m/s 753 mmHg 53%
13:00 +19°C° 0 mm 6 m/s 753 mmHg 52%
14:00 +20°C° 0 mm 6 m/s 753 mmHg 51%
15:00 +20°C° 0 mm 6 m/s 752 mmHg 54%
16:00 +20°C° 0 mm 6 m/s 752 mmHg 57%
17:00 +20°C° 0 mm 5 m/s 752 mmHg 61%
18:00 +17°C° 0 mm 5 m/s 752 mmHg 67%
19:00 +15°C° 0 mm 4 m/s 752 mmHg 73%
20:00 +13°C° 0 mm 4 m/s 752 mmHg 79%
21:00 +12°C° 0 mm 4 m/s 752 mmHg 80%
22:00 +11°C° 0 mm 4 m/s 752 mmHg 81%
23:00 +11°C° 0 mm 4 m/s 752 mmHg 82%

Mâine, 11 Mai, Marţi

Timp Temperatura Precipitaţii Vânt Presiune Umiditate
00:00 +10°C° 0 mm 4 m/s 752 mmHg 83%
01:00 +8°C° 0 mm 4 m/s 752 mmHg 85%
02:00 +8°C° 0 mm 4 m/s 753 mmHg 86%
03:00 +8°C° 0 mm 4 m/s 752 mmHg 86%
04:00 +7°C° 0 mm 4 m/s 752 mmHg 86%
05:00 +7°C° 0 mm 4 m/s 752 mmHg 86%
06:00 +9°C° 0 mm 5 m/s 752 mmHg 80%
07:00 +10°C° 0 mm 6 m/s 752 mmHg 75%
08:00 +13°C° 0 mm 6 m/s 753 mmHg 69%
09:00 +14°C° 0 mm 6 m/s 752 mmHg 64%
10:00 +15°C° 0 mm 7 m/s 752 mmHg 58%
11:00 +17°C° 0 mm 7 m/s 752 mmHg 53%
12:00 +17°C° 0 mm 7 m/s 752 mmHg 50%
13:00 +19°C° 0 mm 6 m/s 752 mmHg 47%
14:00 +19°C° 0 mm 6 m/s 751 mmHg 44%
15:00 +19°C° 0 mm 6 m/s 751 mmHg 47%
16:00 +19°C° 0 mm 5 m/s 751 mmHg 50%
17:00 +19°C° 0 mm 5 m/s 750 mmHg 54%
18:00 +16°C° 0 mm 5 m/s 750 mmHg 62%
19:00 +15°C° 0 mm 4 m/s 750 mmHg 70%
20:00 +13°C° 0 mm 4 m/s 749 mmHg 78%
21:00 +13°C° 0 mm 4 m/s 750 mmHg 78%
22:00 +12°C° 0 mm 4 m/s 750 mmHg 78%
23:00 +12°C° 0 mm 4 m/s 750 mmHg 79%

Poimâine, 12 Mai, Miercuri

Timp Temperatura Precipitaţii Vânt Presiune Umiditate
00:00 +12°C° 0 mm 4 m/s 749 mmHg 83%
01:00 +11°C° 0 mm 4 m/s 749 mmHg 88%
02:00 +10°C° 0 mm 3 m/s 749 mmHg 92%
03:00 +10°C° 0 mm 4 m/s 749 mmHg 93%
04:00 +10°C° 0 mm 4 m/s 749 mmHg 95%
05:00 +9°C° 0 mm 5 m/s 748 mmHg 96%
06:00 +10°C° 0 mm 6 m/s 749 mmHg 89%
07:00 +11°C° 0 mm 7 m/s 749 mmHg 81%
08:00 +11°C° 0 mm 8 m/s 749 mmHg 74%
09:00 +12°C° 0 mm 8 m/s 749 mmHg 69%
10:00 +13°C° 0 mm 8 m/s 749 mmHg 64%
11:00 +13°C° 0 mm 8 m/s 748 mmHg 59%
12:00 +15°C° 0 mm 8 m/s 748 mmHg 58%
13:00 +15°C° 0 mm 8 m/s 748 mmHg 56%
14:00 +15°C° 0 mm 8 m/s 748 mmHg 54%
15:00 +15°C° 0 mm 7 m/s 747 mmHg 57%
16:00 +15°C° 0 mm 6 m/s 747 mmHg 59%
17:00 +15°C° 0 mm 6 m/s 747 mmHg 62%
18:00 +13°C° 0 mm 5 m/s 746 mmHg 66%
19:00 +12°C° 0 mm 5 m/s 746 mmHg 71%
20:00 +10°C° 0 mm 4 m/s 746 mmHg 76%
21:00 +8°C° 0 mm 4 m/s 745 mmHg 80%
22:00 +8°C° 0 mm 3 m/s 745 mmHg 84%
23:00 +7°C° 0 mm 2 m/s 745 mmHg 87%

13 Mai, Joi

Timp Temperatura Precipitaţii Vânt Presiune Umiditate
00:00 +7°C° 0 mm 2 m/s 744 mmHg 88%
01:00 +6°C° 0 mm 2 m/s 744 mmHg 89%
02:00 +6°C° 0 mm 2 m/s 743 mmHg 89%
03:00 +6°C° 0 mm 2 m/s 743 mmHg 90%
04:00 +5°C° 0 mm 3 m/s 742 mmHg 91%
05:00 +5°C° 0 mm 3 m/s 742 mmHg 92%
06:00 +7°C° 0 mm 4 m/s 742 mmHg 84%
07:00 +8°C° 0 mm 4 m/s 741 mmHg 76%
08:00 +10°C° 0 mm 5 m/s 741 mmHg 69%
09:00 +11°C° 0 mm 6 m/s 741 mmHg 69%
10:00 +13°C° 0 mm 6 m/s 741 mmHg 69%
11:00 +13°C° 0 mm 6 m/s 740 mmHg 69%
12:00 +13°C° 0 mm 6 m/s 740 mmHg 73%
13:00 +11°C° 0 mm 6 m/s 740 mmHg 76%
14:00 +12°C° 0 mm 5 m/s 740 mmHg 80%
15:00 +12°C° 0.2 mm 5 m/s 740 mmHg 81%
16:00 +13°C° 0.2 mm 5 m/s 740 mmHg 83%
17:00 +13°C° 0.2 mm 5 m/s 740 mmHg 84%
18:00 +13°C° 0 mm 5 m/s 740 mmHg 84%
19:00 +13°C° 0 mm 5 m/s 741 mmHg 84%
20:00 +12°C° 0 mm 5 m/s 741 mmHg 85%
21:00 +12°C° 0 mm 5 m/s 741 mmHg 87%
22:00 +11°C° 0 mm 4 m/s 741 mmHg 90%
23:00 +10°C° 0 mm 4 m/s 741 mmHg 92%

14 Mai, Vineri

Timp Temperatura Precipitaţii Vânt Presiune Umiditate
00:00 +10°C° 0 mm 4 m/s 741 mmHg 93%
01:00 +10°C° 0 mm 3 m/s 741 mmHg 94%
02:00 +10°C° 0 mm 3 m/s 740 mmHg 94%
03:00 +10°C° 0 mm 2 m/s 740 mmHg 95%
04:00 +10°C° 0 mm 2 m/s 740 mmHg 96%
05:00 +10°C° 0 mm 2 m/s 740 mmHg 97%
06:00 +10°C° 0 mm 2 m/s 740 mmHg 95%
07:00 +12°C° 0 mm 2 m/s 740 mmHg 93%
08:00 +13°C° 0 mm 2 m/s 740 mmHg 91%
09:00 +13°C° 0.2 mm 2 m/s 740 mmHg 91%
10:00 +13°C° 0.2 mm 2 m/s 741 mmHg 91%
11:00 +13°C° 0.2 mm 2 m/s 741 mmHg 92%
12:00 +13°C° 0.4 mm 2 m/s 741 mmHg 91%
13:00 +13°C° 0.4 mm 1 m/s 741 mmHg 90%
14:00 +14°C° 0.4 mm 1 m/s 742 mmHg 90%
15:00 +14°C° 0 mm 1 m/s 742 mmHg 86%
16:00 +15°C° 0 mm 1 m/s 742 mmHg 82%
17:00 +16°C° 0 mm 1 m/s 742 mmHg 77%
18:00 +15°C° 0 mm 1 m/s 742 mmHg 81%
19:00 +14°C° 0 mm 1 m/s 742 mmHg 84%
20:00 +12°C° 0 mm 0 m/s 742 mmHg 88%
21:00 +13°C° 0 mm 1 m/s 743 mmHg 89%
22:00 +12°C° 0 mm 1 m/s 743 mmHg 90%
23:00 +11°C° 0 mm 1 m/s 743 mmHg 92%

15 Mai, Sâmbătă

Timp Temperatura Precipitaţii Vânt Presiune Umiditate
00:00 +11°C° 0 mm 1 m/s 743 mmHg 92%
01:00 +11°C° 0 mm 1 m/s 743 mmHg 93%
02:00 +10°C° 0 mm 1 m/s 743 mmHg 93%
03:00 +10°C° 0 mm 1 m/s 744 mmHg 94%
04:00 +9°C° 0 mm 2 m/s 744 mmHg 94%
05:00 +9°C° 0 mm 2 m/s 744 mmHg 95%
06:00 +10°C° 0 mm 2 m/s 744 mmHg 91%
07:00 +13°C° 0 mm 2 m/s 745 mmHg 87%
08:00 +13°C° 0 mm 3 m/s 745 mmHg 82%
09:00 +14°C° 0 mm 3 m/s 745 mmHg 77%
10:00 +16°C° 0 mm 3 m/s 745 mmHg 72%
11:00 +17°C° 0 mm 3 m/s 745 mmHg 67%
12:00 +17°C° 0.3 mm 3 m/s 745 mmHg 67%
13:00 +18°C° 0.3 mm 3 m/s 745 mmHg 66%
14:00 +18°C° 0.3 mm 3 m/s 745 mmHg 66%
15:00 +18°C° 0.2 mm 3 m/s 745 mmHg 66%
16:00 +18°C° 0.2 mm 3 m/s 745 mmHg 66%
17:00 +18°C° 0.2 mm 2 m/s 745 mmHg 66%
18:00 +17°C° 0.1 mm 2 m/s 745 mmHg 72%
19:00 +15°C° 0.1 mm 2 m/s 745 mmHg 78%
20:00 +14°C° 0.1 mm 2 m/s 745 mmHg 85%
21:00 +13°C° 0 mm 2 m/s 745 mmHg 87%
22:00 +12°C° 0 mm 2 m/s 746 mmHg 88%
23:00 +12°C° 0 mm 2 m/s 746 mmHg 90%
Arată mai mult

Formular de consimțământ

Meteoprog și furnizorii noștri de servicii pot stoca și accesa date personale, precum cookies, identificatori de dispozitiv sau alte tehnologii similare pe dispozitivul dumneavoastră și procesa astfel de date pentru a personaliza conținutul și reclamele, dar și pentru a oferi caracteristici de social media și pentru a analiza traficul.

  • Stocarea și/sau accesarea informațiilor pe dispozitivul dumneavoastră

    Cookies, identificatori de dispozitiv sau alte informații pot fi stocate sau accesate pe dispozitiv în scopurile indicate mai sus.

  • Reclame și conținut personalizat, evaluarea reclamelor și a conținutului, informații despre audiențe și dezvoltarea produselor

    Reclamele și conținutul pot fi personalizate pe baza unui profil. Pot fi adăugate date suplimentare pentru a personaliza mai bine reclamele și conținutul. Performanța reclamelor și conținutului poate fi măsurată. Pot fi obținute informații despre utilizatorii care au văzut reclamele și conținutul. Aceste date pot fi utilizate pentru a dezvolta sau îmbunătăți experiența utilizatorilor, sistemele și software-ul.

Dând clic pe ‘Sunt de acord’, permiteți utilizarea cookie-urilor menționate, a identificatorilor de dispozitiv, balizelor web sau altor tehnologii similare. Setările pot fi modificate din browser-ul dispozitivului dumneavoastră.

În anumite scopuri, interesele legitime pot prima asupra consimțământului. Puteți citi mai multe informații în acest sens în Politica privind Confidențialitatea Datelor și Cookie.